Time,TemperatureF,DewpointF,PressureIn,WindDirection,WindDirectionDegrees,WindSpeedMPH,WindSpeedGustMPH,Humidity,HourlyPrecipIn,Conditions,Clouds,dailyrainin,SoftwareType,DateUTC
2013-11-07 00:07:00,53.1,46.0,30.06,East,88,2.0,-999.0,78,-99.99,,,0.00,weatherlink.com 1.10,2013-11-07 05:07:00,
2013-11-07 00:22:00,53.0,47.0,30.05,East,98,0.0,-999.0,79,-99.99,,,0.00,weatherlink.com 1.10,2013-11-07 05:22:00,
2013-11-07 00:37:00,53.0,47.0,30.04,SE,130,0.0,-999.0,80,-99.99,,,0.00,weatherlink.com 1.10,2013-11-07 05:37:00,
2013-11-07 00:52:00,53.1,47.0,30.02,ESE,116,6.0,-999.0,81,-99.99,,,0.00,weatherlink.com 1.10,2013-11-07 05:52:00,
2013-11-07 01:07:00,53.0,47.0,30.03,ENE,64,5.0,-999.0,81,-99.99,,,0.00,weatherlink.com 1.10,2013-11-07 06:07:00,
2013-11-07 01:22:00,52.7,48.0,30.02,ENE,65,0.0,-999.0,83,-99.99,,,0.00,weatherlink.com 1.10,2013-11-07 06:22:00,
2013-11-07 01:37:00,52.4,47.0,30.01,ENE,61,0.0,-999.0,83,-99.99,,,0.00,weatherlink.com 1.10,2013-11-07 06:37:00,
2013-11-07 01:52:00,52.0,48.0,30.01,SE,128,0.0,-999.0,85,-99.99,,,0.00,weatherlink.com 1.10,2013-11-07 06:52:00,
2013-11-07 02:07:00,51.6,48.0,30.00,South,190,0.0,-999.0,86,-99.99,,,0.00,weatherlink.com 1.10,2013-11-07 07:07:00,
2013-11-07 02:22:00,51.4,47.0,29.99,SSW,192,0.0,-999.0,86,-99.99,,,0.00,weatherlink.com 1.10,2013-11-07 07:22:00,
2013-11-07 02:37:00,51.5,48.0,29.98,East,86,1.0,-999.0,88,-99.99,,,0.00,weatherlink.com 1.10,2013-11-07 07:37:00,
2013-11-07 02:52:00,51.0,47.0,29.97,ESE,106,1.0,-999.0,87,-99.99,,,0.00,weatherlink.com 1.10,2013-11-07 07:52:00,
2013-11-07 03:07:00,50.0,47.0,29.96,ENE,74,0.0,-999.0,88,-99.99,,,0.00,weatherlink.com 1.10,2013-11-07 08:07:00,
2013-11-07 03:23:00,49.4,47.0,29.96,SE,140,0.0,-999.0,90,-99.99,,,0.00,weatherlink.com 1.10,2013-11-07 08:23:00,
2013-11-07 03:38:00,49.3,47.0,29.95,SE,140,0.0,-999.0,91,-99.99,,,0.00,weatherlink.com 1.10,2013-11-07 08:38:00,
2013-11-07 03:53:00,50.0,48.0,29.94,ENE,67,0.0,-999.0,92,-99.99,,,0.00,weatherlink.com 1.10,2013-11-07 08:53:00,
2013-11-07 04:08:00,51.0,49.0,29.93,ENE,69,0.0,-999.0,91,-99.99,,,0.00,weatherlink.com 1.10,2013-11-07 09:08:00,
2013-11-07 04:23:00,52.5,51.0,29.92,ENE,76,1.0,-999.0,93,-99.99,,,0.00,weatherlink.com 1.10,2013-11-07 09:23:00,
2013-11-07 04:38:00,54.9,52.0,29.91,East,96,0.0,-999.0,90,-99.99,,,0.00,weatherlink.com 1.10,2013-11-07 09:38:00,
2013-11-07 04:53:00,57.0,54.0,29.90,SE,145,1.0,-999.0,88,-99.99,,,0.00,weatherlink.com 1.10,2013-11-07 09:53:00,
2013-11-07 05:08:00,58.7,55.0,29.89,NNE,13,1.0,-999.0,86,-99.99,,,0.00,weatherlink.com 1.10,2013-11-07 10:08:00,
2013-11-07 05:23:00,59.3,55.0,29.88,NE,34,3.0,-999.0,85,-99.99,,,0.00,weatherlink.com 1.10,2013-11-07 10:23:00,
2013-11-07 05:38:00,59.9,55.0,29.87,SSE,165,0.0,-999.0,84,-99.99,,,0.00,weatherlink.com 1.10,2013-11-07 10:38:00,
2013-11-07 05:53:00,60.0,55.0,29.87,NNW,333,1.0,-999.0,84,-99.99,,,0.00,weatherlink.com 1.10,2013-11-07 10:53:00,
2013-11-07 06:08:00,60.2,55.0,29.86,West,262,0.0,-999.0,83,-99.99,,,0.00,weatherlink.com 1.10,2013-11-07 11:08:00,
2013-11-07 06:23:00,60.2,55.0,29.85,East,94,9.0,-999.0,84,-99.99,,,0.00,weatherlink.com 1.10,2013-11-07 11:23:00,
2013-11-07 06:38:00,60.3,56.0,29.84,East,101,7.0,-999.0,84,-99.99,,,0.00,weatherlink.com 1.10,2013-11-07 11:38:00,
2013-11-07 06:53:00,60.3,56.0,29.83,ENE,74,1.0,-999.0,84,-99.99,,,0.00,weatherlink.com 1.10,2013-11-07 11:53:00,
2013-11-07 07:08:00,60.5,55.0,29.84,North,360,1.0,-999.0,83,-99.99,,,0.00,weatherlink.com 1.10,2013-11-07 12:08:00,
2013-11-07 07:23:00,60.9,55.0,29.84,SSW,200,2.0,-999.0,82,-99.99,,,0.00,weatherlink.com 1.10,2013-11-07 12:23:00,
2013-11-07 07:38:00,61.2,56.0,29.83,East,88,1.0,-999.0,82,-99.99,,,0.00,weatherlink.com 1.10,2013-11-07 12:38:00,
2013-11-07 07:53:00,61.4,56.0,29.82,East,84,0.0,-999.0,81,-99.99,,,0.00,weatherlink.com 1.10,2013-11-07 12:53:00,
2013-11-07 08:09:00,61.7,56.0,29.82,NE,45,1.0,-999.0,80,-99.99,,,0.00,weatherlink.com 1.10,2013-11-07 13:09:00,
2013-11-07 08:24:00,62.1,56.0,29.81,SSE,166,1.0,-999.0,80,-99.99,,,0.00,weatherlink.com 1.10,2013-11-07 13:24:00,
2013-11-07 08:39:00,62.2,56.0,29.80,WSW,240,4.0,-999.0,79,-99.99,,,0.00,weatherlink.com 1.10,2013-11-07 13:39:00,
2013-11-07 08:54:00,62.3,56.0,29.80,NNW,347,0.0,-999.0,79,-99.99,,,0.00,weatherlink.com 1.10,2013-11-07 13:54:00,
2013-11-07 09:09:00,62.3,55.0,29.80,SE,138,0.0,-999.0,78,-99.99,,,0.00,weatherlink.com 1.10,2013-11-07 14:09:00,
2013-11-07 09:24:00,62.2,56.0,29.80,SSW,199,1.0,-999.0,79,-99.99,,,0.00,weatherlink.com 1.10,2013-11-07 14:24:00,
2013-11-07 09:39:00,62.1,56.0,29.80,NE,55,0.0,-999.0,79,-99.99,,,0.00,weatherlink.com 1.10,2013-11-07 14:39:00,
2013-11-07 09:54:00,61.8,56.0,29.80,ENE,75,1.0,-999.0,80,-99.99,,,0.00,weatherlink.com 1.10,2013-11-07 14:54:00,
2013-11-07 10:09:00,60.3,57.0,29.79,SSW,210,1.0,-999.0,87,-99.99,,,0.01,weatherlink.com 1.10,2013-11-07 15:09:00,
2013-11-07 10:24:00,59.1,56.0,29.79,East,84,0.0,-999.0,90,-99.99,,,0.01,weatherlink.com 1.10,2013-11-07 15:24:00,
2013-11-07 10:39:00,59.0,56.0,29.79,SW,234,0.0,-999.0,91,-99.99,,,0.01,weatherlink.com 1.10,2013-11-07 15:39:00,
2013-11-07 10:54:00,59.0,57.0,29.78,ESE,117,0.0,-999.0,92,-99.99,,,0.01,weatherlink.com 1.10,2013-11-07 15:54:00,
2013-11-07 11:09:00,59.2,57.0,29.78,ENE,64,1.0,-999.0,91,-99.99,,,0.01,weatherlink.com 1.10,2013-11-07 16:09:00,
2013-11-07 11:24:00,59.6,57.0,29.78,WSW,255,0.0,-999.0,90,-99.99,,,0.01,weatherlink.com 1.10,2013-11-07 16:24:00,
2013-11-07 11:39:00,59.8,56.0,29.76,East,81,0.0,-999.0,87,-99.99,,,0.01,weatherlink.com 1.10,2013-11-07 16:39:00,
2013-11-07 11:54:00,59.8,56.0,29.75,ENE,63,0.0,-999.0,87,-99.99,,,0.01,weatherlink.com 1.10,2013-11-07 16:54:00,
2013-11-07 12:09:00,59.2,55.0,29.74,NE,52,0.0,-999.0,87,-99.99,,,0.01,weatherlink.com 1.10,2013-11-07 17:09:00,
2013-11-07 12:24:00,59.0,56.0,29.73,ENE,71,0.0,-999.0,89,-99.99,,,0.01,weatherlink.com 1.10,2013-11-07 17:24:00,
2013-11-07 12:39:00,57.5,54.0,29.73,NNW,327,1.0,-999.0,89,-99.99,,,0.02,weatherlink.com 1.10,2013-11-07 17:39:00,
2013-11-07 12:54:00,56.0,54.0,29.72,West,276,0.0,-999.0,91,-99.99,,,0.02,weatherlink.com 1.10,2013-11-07 17:54:00,
2013-11-07 13:09:00,55.0,53.0,29.73,West,276,0.0,-999.0,92,-99.99,,,0.02,weatherlink.com 1.10,2013-11-07 18:09:00,
2013-11-07 13:24:00,54.5,52.0,29.71,West,276,0.0,-999.0,92,-99.99,,,0.02,weatherlink.com 1.10,2013-11-07 18:24:00,
2013-11-07 13:39:00,54.3,52.0,29.72,West,276,0.0,-999.0,93,-99.99,,,0.03,weatherlink.com 1.10,2013-11-07 18:39:00,
2013-11-07 13:54:00,54.1,52.0,29.72,West,276,0.0,-999.0,93,-99.99,,,0.03,weatherlink.com 1.10,2013-11-07 18:54:00,
2013-11-07 14:08:00,53.8,52.0,29.72,NW,312,0.0,-999.0,92,-99.99,,,0.03,weatherlink.com 1.10,2013-11-07 19:08:00,
2013-11-07 14:24:00,53.3,50.0,29.74,ESE,118,0.0,-999.0,89,-99.99,,,0.03,weatherlink.com 1.10,2013-11-07 19:24:00,
2013-11-07 14:39:00,52.9,50.0,29.74,WNW,292,0.0,-999.0,88,-99.99,,,0.03,weatherlink.com 1.10,2013-11-07 19:39:00,
2013-11-07 14:54:00,52.2,49.0,29.75,West,277,0.0,-999.0,88,-99.99,,,0.03,weatherlink.com 1.10,2013-11-07 19:54:00,
2013-11-07 15:09:00,51.0,47.0,29.75,SW,227,0.0,-999.0,87,-99.99,,,0.03,weatherlink.com 1.10,2013-11-07 20:09:00,
2013-11-07 15:24:00,49.9,47.0,29.75,NNE,19,0.0,-999.0,89,-99.99,,,0.04,weatherlink.com 1.10,2013-11-07 20:24:00,
2013-11-07 15:39:00,49.2,46.0,29.75,WNW,286,0.0,-999.0,89,-99.99,,,0.04,weatherlink.com 1.10,2013-11-07 20:39:00,
2013-11-07 15:54:00,48.8,46.0,29.74,West,266,0.0,-999.0,90,-99.99,,,0.04,weatherlink.com 1.10,2013-11-07 20:54:00,
2013-11-07 16:10:00,48.4,46.0,29.74,ESE,122,0.0,-999.0,90,-99.99,,,0.04,weatherlink.com 1.10,2013-11-07 21:10:00,
2013-11-07 16:25:00,48.1,45.0,29.75,ESE,122,0.0,-999.0,90,-99.99,,,0.04,weatherlink.com 1.10,2013-11-07 21:25:00,
2013-11-07 16:40:00,47.9,45.0,29.76,East,92,0.0,-999.0,90,-99.99,,,0.04,weatherlink.com 1.10,2013-11-07 21:40:00,
2013-11-07 16:55:00,47.7,45.0,29.76,East,92,0.0,-999.0,90,-99.99,,,0.04,weatherlink.com 1.10,2013-11-07 21:55:00,
2013-11-07 17:10:00,47.5,45.0,29.76,East,92,0.0,-999.0,89,-99.99,,,0.04,weatherlink.com 1.10,2013-11-07 22:10:00,
2013-11-07 17:25:00,47.3,44.0,29.76,East,92,0.0,-999.0,88,-99.99,,,0.04,weatherlink.com 1.10,2013-11-07 22:25:00,
2013-11-07 17:40:00,47.1,44.0,29.78,East,92,0.0,-999.0,88,-99.99,,,0.04,weatherlink.com 1.10,2013-11-07 22:40:00,
2013-11-07 17:55:00,46.9,44.0,29.78,East,92,0.0,-999.0,88,-99.99,,,0.04,weatherlink.com 1.10,2013-11-07 22:55:00,
2013-11-07 18:10:00,46.7,43.0,29.79,East,92,0.0,-999.0,88,-99.99,,,0.04,weatherlink.com 1.10,2013-11-07 23:10:00,
2013-11-07 18:25:00,46.2,43.0,29.80,East,92,0.0,-999.0,88,-99.99,,,0.04,weatherlink.com 1.10,2013-11-07 23:25:00,
2013-11-07 18:40:00,45.6,42.0,29.81,East,79,0.0,-999.0,86,-99.99,,,0.04,weatherlink.com 1.10,2013-11-07 23:40:00,
2013-11-07 18:55:00,45.3,40.0,29.80,WSW,238,0.0,-999.0,82,-99.99,,,0.04,weatherlink.com 1.10,2013-11-07 23:55:00,
2013-11-07 19:10:00,44.5,40.0,29.81,NW,315,1.0,-999.0,83,-99.99,,,0.04,weatherlink.com 1.10,2013-11-08 00:10:00,
2013-11-07 19:25:00,43.2,38.0,29.82,NW,315,0.0,-999.0,83,-99.99,,,0.04,weatherlink.com 1.10,2013-11-08 00:25:00,
2013-11-07 19:40:00,42.6,37.0,29.82,WNW,299,0.0,-999.0,81,-99.99,,,0.04,weatherlink.com 1.10,2013-11-08 00:40:00,
2013-11-07 19:55:00,42.5,36.0,29.82,WNW,284,0.0,-999.0,79,-99.99,,,0.04,weatherlink.com 1.10,2013-11-08 00:55:00,
2013-11-07 20:10:00,42.1,36.0,29.83,WNW,291,0.0,-999.0,80,-99.99,,,0.04,weatherlink.com 1.10,2013-11-08 01:10:00,
2013-11-07 20:25:00,41.2,36.0,29.84,WNW,291,0.0,-999.0,81,-99.99,,,0.04,weatherlink.com 1.10,2013-11-08 01:25:00,
2013-11-07 20:40:00,40.4,35.0,29.84,WNW,291,0.0,-999.0,82,-99.99,,,0.04,weatherlink.com 1.10,2013-11-08 01:40:00,
2013-11-07 20:55:00,40.3,35.0,29.84,West,279,0.0,-999.0,82,-99.99,,,0.04,weatherlink.com 1.10,2013-11-08 01:55:00,
2013-11-07 21:10:00,40.0,35.0,29.84,ESE,119,1.0,-999.0,81,-99.99,,,0.04,weatherlink.com 1.10,2013-11-08 02:10:00,
2013-11-07 21:25:00,39.5,34.0,29.84,NE,55,0.0,-999.0,80,-99.99,,,0.04,weatherlink.com 1.10,2013-11-08 02:25:00,
2013-11-07 21:40:00,38.7,33.0,29.85,NE,55,0.0,-999.0,80,-99.99,,,0.04,weatherlink.com 1.10,2013-11-08 02:40:00,
2013-11-07 21:55:00,37.8,32.0,29.85,NE,55,0.0,-999.0,81,-99.99,,,0.04,weatherlink.com 1.10,2013-11-08 02:55:00,
2013-11-07 22:10:00,36.9,32.0,29.85,NE,55,0.0,-999.0,82,-99.99,,,0.04,weatherlink.com 1.10,2013-11-08 03:10:00,
2013-11-07 22:25:00,36.2,31.0,29.85,NE,55,0.0,-999.0,81,-99.99,,,0.04,weatherlink.com 1.10,2013-11-08 03:25:00,
2013-11-07 22:40:00,35.7,31.0,29.86,NE,55,0.0,-999.0,82,-99.99,,,0.04,weatherlink.com 1.10,2013-11-08 03:40:00,
2013-11-07 22:55:00,35.2,31.0,29.85,NE,55,0.0,-999.0,84,-99.99,,,0.04,weatherlink.com 1.10,2013-11-08 03:55:00,
2013-11-07 23:10:00,34.4,30.0,29.85,NE,55,0.0,-999.0,83,-99.99,,,0.04,weatherlink.com 1.10,2013-11-08 04:10:00,
2013-11-07 23:25:00,33.9,30.0,29.85,NE,55,0.0,-999.0,84,-99.99,,,0.04,weatherlink.com 1.10,2013-11-08 04:25:00,
2013-11-07 23:40:00,33.5,30.0,29.85,NE,55,0.0,-999.0,87,-99.99,,,0.04,weatherlink.com 1.10,2013-11-08 04:40:00,
2013-11-07 23:55:00,33.3,30.0,29.85,NE,55,0.0,-999.0,86,-99.99,,,0.04,weatherlink.com 1.10,2013-11-08 04:55:00,